Weather History for Du Bois, PA

Change the Weather History Date:

Thursday, May 2, 2013

  Actual Average Record
Temperature  
Mean Temperature 60 °F 52 °F  
Max Temperature 73 °F 64 °F 81 °F (1965)
Min Temperature 47 °F 41 °F 29 °F (1963)
Degree Days  
Heating Degree Days 5 13  
Month to date heating degree days 9 26  
Since 1 July heating degree days 6298 6539  
Cooling Degree Days 0 0  
Month to date cooling degree days 0 0  
Year to date cooling degree days 1 4  
Growing Degree Days 10 (Base 50)    
Moisture  
Dew Point 30 °F    
Average Humidity 36    
Maximum Humidity 59    
Minimum Humidity 13    
Precipitation  
Precipitation 0.00 in 0.11 in 1.66 in (1972)
Month to date precipitation 0.00 0.23  
Sea Level Pressure  
Sea Level Pressure 30.33 in    
Wind  
Wind Speed 9 mph (ESE)    
Max Wind Speed 20 mph    
Max Gust Speed 26 mph    
Visibility 10 miles    
Events      
T = Trace of Precipitation, MM = Missing Value Source: NWS Daily Summary

Daily Weather History Graph

Daily Weather History Graph

Search for Another Location

Airport:

Trip Planner

Search our weather history database for the weather conditions in past years. The results will help you decide how hot, cold, wet, or windy it might be!

Date:

Astronomy

May. 02, 2013 Rise Set
Actual Time 6:11 AM EDT 8:14 PM EDT
Civil Twilight 5:41 AM EDT 8:44 PM EDT
Nautical Twilight 5:04 AM EDT 9:21 PM EDT
Astronomical Twilight 4:24 AM EDT 10:01 PM EDT
Moon 2:01 AM EDT (5/2) 12:57 PM EDT (5/2)
Length of Visible Light 15h 02m
Length of Day
14h 02m
Waning Gibbous, 48% of the Moon is Illuminated
May 2
Waning Gibbous
May 9
New
May 18
First Quarter
May 25
Full
May 31
Last Quarter

Hourly Weather History & Observations

Time (EDT) Temp. Dew Point Humidity Pressure Visibility Wind Dir Wind Speed Gust Speed Precip Events Conditions
12:56 AM 57.0 °F 28.9 °F 34% 30.34 in 10.0 mi ESE 10.4 mph - N/A   Clear
1:56 AM 55.0 °F 30.0 °F 38% 30.34 in 10.0 mi SE 10.4 mph - N/A   Clear
2:56 AM 53.1 °F 30.0 °F 41% 30.34 in 10.0 mi SE 9.2 mph - N/A   Clear
3:56 AM 51.1 °F 30.0 °F 44% 30.35 in 10.0 mi ESE 10.4 mph - N/A   Clear
4:56 AM 50.0 °F 32.0 °F 50% 30.35 in 10.0 mi ESE 6.9 mph - N/A   Clear
5:56 AM 48.0 °F 34.0 °F 58% 30.36 in 10.0 mi SE 6.9 mph - N/A   Clear
6:56 AM 48.0 °F 34.0 °F 58% 30.38 in 10.0 mi East 3.5 mph - N/A   Clear
7:56 AM 51.1 °F 37.0 °F 59% 30.40 in 10.0 mi Variable 5.8 mph - N/A   Clear
8:56 AM 55.0 °F 39.0 °F 55% 30.41 in 10.0 mi ESE 8.1 mph - N/A   Clear
9:56 AM 57.9 °F 37.9 °F 47% 30.40 in 10.0 mi SE 8.1 mph - N/A   Clear
10:56 AM 62.1 °F 36.0 °F 38% 30.39 in 10.0 mi ESE 8.1 mph - N/A   Clear
11:56 AM 64.9 °F 33.1 °F 31% 30.38 in 10.0 mi ESE 10.4 mph 17.3 mph N/A   Clear
12:56 PM 68.0 °F 30.9 °F 25% 30.35 in 10.0 mi Variable 5.8 mph - N/A   Clear
1:56 PM 70.0 °F 28.0 °F 21% 30.34 in 10.0 mi Variable 5.8 mph 18.4 mph N/A   Clear
2:56 PM 73.0 °F 26.1 °F 17% 30.32 in 10.0 mi ESE 13.8 mph 20.7 mph N/A   Clear
3:56 PM 73.0 °F 19.9 °F 14% 30.30 in 10.0 mi SE 13.8 mph 23.0 mph N/A   Clear
4:56 PM 73.0 °F 21.9 °F 15% 30.28 in 10.0 mi SE 13.8 mph 21.9 mph N/A   Clear
5:56 PM 72.0 °F 25.0 °F 17% 30.28 in 10.0 mi ESE 15.0 mph 20.7 mph N/A   Clear
6:56 PM 70.0 °F 26.1 °F 19% 30.27 in 10.0 mi SE 9.2 mph 18.4 mph N/A   Clear
7:56 PM 66.0 °F 28.0 °F 24% 30.28 in 10.0 mi ESE 9.2 mph - N/A   Clear
8:56 PM 63.0 °F 25.0 °F 24% 30.29 in 10.0 mi SE 8.1 mph - N/A   Clear
9:56 PM 60.1 °F 27.0 °F 28% 30.29 in 10.0 mi ESE 9.2 mph - N/A   Clear
10:56 PM 59.0 °F 30.9 °F 35% 30.28 in 10.0 mi ESE 9.2 mph - N/A   Clear
11:56 PM 57.9 °F 32.0 °F 37% 30.27 in 10.0 mi ESE 9.2 mph - N/A   Clear